Location: Newark
(35.5300°N, 14.3000°E)
Time: 14:35:15
(UTC+00:00)

Envisat - Visible Passes

Search period start: 21 March 2019 00:00
Search period end: 31 March 2019 00:00
Orbit: 764 x 766 km, 98.2° (Epoch: 21 March)

Date Brightness Start Highest point End Pass type
(mag) Time Alt. Az. Time Alt. Az. Time Alt. Az.
21 Mar 3.0 17:34:04 10° SSE 17:39:07 73° ENE 17:44:11 10° N visible
21 Mar 6.2 19:17:44 10° W 19:18:35 10° W 19:19:26 10° W visible
22 Mar 5.2 18:37:20 10° SSW 18:41:30 26° W 18:45:43 10° NW visible
23 Mar 3.6 17:59:37 10° S 18:04:37 62° W 18:09:40 10° NNW visible
24 Mar 5.9 19:04:39 10° WSW 19:07:15 14° W 19:09:51 10° WNW visible
25 Mar 4.8 18:25:41 10° SSW 18:30:14 33° W 18:34:48 10° NNW visible
26 Mar 3.2 17:48:20 10° S 17:53:24 80° WSW 17:58:31 10° NNW visible
27 Mar 5.8 18:52:30 10° SW 18:55:56 18° W 18:59:23 10° NW visible
28 Mar 4.3 18:14:11 10° S 18:18:58 43° W 18:23:48 10° NNW visible
30 Mar 5.4 18:40:38 10° SSW 18:44:38 23° W 18:48:40 10° NW visible
